Location: Colonial Hills
(40.5656°N, 77.6119°W)
Time: 03:25:25
(UTC+00:00)

X-37B - Pass Details

Date: 25 November 2020
Orbit: 383 x 391 km, 45.1° (Epoch: 22 January)

Event Time Altitude Azimuth Distance (km) Brightness Sun altitude
Rises 22:54:45 0° 202° (SSW) 2,246 5.0 -12.9°
Reaches altitude 10° 22:57:26 10° 177° (S) 1,399 3.6 -13.4°
Maximum altitude 22:59:18 15° 141° (SE) 1,157 2.7 -13.7°
Enters shadow 22:59:52 14° 128° (SE) 1,183 2.7 -13.9°
